Location: Maiden
(35.5760°N, 81.2120°W)
Time: 02:02:33
(UTC-04:00)

Cosmos 1190 Rocket - Pass Details

Date: 02 August 2020
Orbit: 756 x 781 km, 74.1° (Epoch: 11 August)

Event Time Altitude Azimuth Distance (km) Brightness Sun altitude
Exits shadow 23:19:07 66° 12° (NNE) 839 4.2 -28.5°
Drops below altitude 10° 23:23:39 10° 17° (NNE) 2,327 6.9 -29.0°
Sets 23:26:03 0° 18° (NNE) 3,261 7.7 -29.3°
